This is the latest recevied weather packets stored in our database for station/object SR9NSK-5. If no packets are shown the sender has not sent any weather packets the latest 1 day(s).
| Time | Temp. | Humidity | Pressure | Rain* | Wind** | Luminosity | Snow |
|---|---|---|---|---|---|---|---|
| 1778087162 | 16.11° C | 57% | 901.3 hPa | - | - | - | - |
| 1778086920 | 16.11° C | 56% | 901.3 hPa | - | - | - | - |
| 1778086680 | 16.11° C | 56% | 901.3 hPa | - | - | - | - |
| 1778086440 | 16.11° C | 56% | 901.3 hPa | - | - | - | - |
| 1778084625 | 16.67° C | 57% | 901.4 hPa | - | - | - | - |
| 1778082942 | 17.78° C | 55% | 901.5 hPa | - | - | - | - |
| 1778081497 | 17.78° C | 56% | 901.7 hPa | - | - | - | - |
| 1778080537 | 17.22° C | 56% | 901.9 hPa | - | - | - | - |
| 1778080055 | 17.22° C | 55% | 901.9 hPa | - | - | - | - |
| 1778079815 | 17.22° C | 55% | 901.9 hPa | - | - | - | - |
| 1778079575 | 17.22° C | 55% | 901.9 hPa | - | - | - | - |
| 1778078131 | 17.78° C | 53% | 902 hPa | - | - | - | - |
| 1778077889 | 18.33° C | 53% | 902 hPa | - | - | - | - |
| 1778077649 | 18.33° C | 53% | 902.1 hPa | - | - | - | - |
| 1778077409 | 18.33° C | 53% | 902.1 hPa | - | - | - | - |
| 1778077169 | 18.89° C | 53% | 902 hPa | - | - | - | - |
| 1778075957 | 20.56° C | 51% | 902.1 hPa | - | - | - | - |
| 1778074514 | 20° C | 51% | 902 hPa | - | - | - | - |
| 1778074272 | 20.56° C | 51% | 902 hPa | - | - | - | - |
| 1778074032 | 20.56° C | 51% | 902.1 hPa | - | - | - | - |
| 1778073792 | 20.56° C | 52% | 902.1 hPa | - | - | - | - |
| 1778073552 | 20.56° C | 52% | 902 hPa | - | - | - | - |
| 1778073311 | 20° C | 53% | 902 hPa | - | - | - | - |
| 1778071625 | 19.44° C | 53% | 902.2 hPa | - | - | - | - |
| 1778070422 | 18.89° C | 53% | 902.3 hPa | - | - | - | - |
* Rain since midnight (hover to see other rain measurements)
** Current wind speed in m/s (hover to see current wind gust speed)